Погода в Альбукерке

США     35°05′03″N   106°38′55″W
темп.,
°C
ветер,
м/с
пор.,
м/с
влажн.,
%
обл.,
%
осадки,
мм/ч
давл.,
гПа
погр.,
м
19 апреля, пн
пн1900:00+9зсз11460 0.0 101874
03:00+7з01530 0.0 101841
06:00+6ююз11560 0.0 101823
09:00+9юз12430 0.0 1018541
12:00+14з35250 0.0 10141951
15:00+18юз47141 0.0 10103143
18:00+20зсз79114 0.0 10063781
21:00+17з813171 0.0 1008524
20 апреля, вт
вт2000:00+14зюз511210 0.0 1008219
03:00+12зсз46220 0.0 1010106
06:00+10с34370 0.0 1012117
09:00+12с44270 0.0 10141110
12:00+15ю25244 0.0 10142393
15:00+19ю410176 0.0 10092921
18:00+21сз91011100 0.0 10064008
21:00+16всв6917100 0.0 1009291
21 апреля, ср
ср2100:00+11всв5634100 0.0 1013300
03:00+10в5836100 0.0 1014343
06:00+7всв4541100 0.0 1015297
09:00+8в334019 0.0 1016448
12:00+15ю352543 0.0 10121411
15:00+20юв0615100 0.0 10052269
18:00+22юз121210100 0.0 10014147
21:00+19зюз81313100 0.0 1004511
22 апреля, чт
чт2200:00+15з6101444 0.0 1007300
03:00+12з351878 0.0 1009135
06:00+10з59215 0.0 1010162
09:00+13з89200 0.0 1010831
12:00+17зюз69155 0.0 10092788
15:00+21з812928 0.0 10044060
18:00+21зсз1113897 0.0 10023859
21:00+17зсз71212100 0.0 1005444
23 апреля, пт
пт2300:00+15з71315100 0.0 1007397
03:00+12з6122281 0.0 1007251
06:00+10з34320 0.0 100867
09:00+14з67270 0.0 1008765
12:00+18зюз572076 0.0 10063177
15:00+20сз6912100 0.0 10034165
18:00+20сз7131397 0.0 10034087
21:00+17сз6101810 0.0 1006401